Albemarle, NC

3:33 PM EDT on September 22, 2019 (GMT -0400)
Stanly County

Weather History for KVUJ - August, 2019

Change the Weather History Date:

Tuesday, August 20, 2019

  Actual Average (KHBI) Record (KHBI)
Temperature  
Mean Temperature 78 °F -  
Max Temperature 86 °F 86 °F 103 °F (1983)
Min Temperature 71 °F 67 °F 52 °F (1944)
Cooling Degree Days 13    
Growing Degree Days 28 (Base 50)    
Moisture  
Dew Point 72 °F    
Average Humidity 86    
Maximum Humidity 99    
Minimum Humidity 65    
Precipitation  
Precipitation 0.04 in - - ()
Sea Level Pressure  
Sea Level Pressure 30.16 in    
Wind  
Wind Speed 2 mph ()    
Max Wind Speed 10 mph    
Max Gust Speed 16 mph    
Visibility 10.0 miles    
Events Rain , Thunderstorm    
Averages and records for this station are not official NWS values.
T = Trace of Precipitation, MM = Missing Value Source: Averaged Metar Reports

Daily Weather History Graph

Daily Weather History Graph

Search for Another Location

Airport or City:

Astronomy

Aug. 20, 2019 Rise Set
Actual Time 6:43 AM EDT 8:03 PM EDT
Civil Twilight 6:16 AM EDT 8:30 PM EDT
Nautical Twilight 5:45 AM EDT 9:02 PM EDT
Astronomical Twilight 5:11 AM EDT 9:35 PM EDT
Moon 11:01 PM EDT (8/20) 11:10 AM EDT (8/20)
Length of Visible Light 14h 13m
Length of Day
13h 20m
Waning Gibbous, 78% of the Moon is Illuminated
Aug 20
Waning Gibbous
Aug 23
Last Quarter
Aug 30
New
Sep 5
First Quarter
Sep 14
Full

Hourly Weather History & Observations

Time (EDT) Temp. Heat Index Dew Point Humidity Pressure Visibility Wind Dir Wind Speed Gust Speed Precip Events Conditions
12:15 AM 74.1 °F - 72.0 °F 93% 30.14 in 10.0 mi Calm Calm - N/A   Clear
12:35 AM 73.8 °F - 72.1 °F 95% 30.15 in 10.0 mi Calm Calm - N/A   Clear
12:55 AM 74.1 °F - 72.5 °F 95% 30.14 in 10.0 mi Calm Calm - N/A   Clear
1:15 AM 73.6 °F - 71.8 °F 94% 30.14 in 10.0 mi Calm Calm - N/A   Clear
1:35 AM 73.8 °F - 72.1 °F 95% 30.14 in 10.0 mi Calm Calm - N/A   Clear
1:55 AM 74.1 °F - 71.8 °F 92% 30.13 in 10.0 mi Calm Calm - N/A   Clear
2:15 AM 73.2 °F - 72.0 °F 96% 30.13 in 10.0 mi Calm Calm - N/A   Clear
2:35 AM 73.2 °F - 71.6 °F 95% 30.13 in 10.0 mi Calm Calm - N/A   Clear
2:55 AM 73.0 °F - 71.6 °F 95% 30.14 in 10.0 mi SSW 3.5 mph - N/A   Clear
3:15 AM 73.4 °F - 72.0 °F 95% 30.14 in 10.0 mi Calm Calm - N/A   Clear
3:35 AM 73.8 °F - 72.3 °F 95% 30.15 in 10.0 mi Calm Calm - N/A   Clear
3:55 AM 73.6 °F - 72.1 °F 95% 30.15 in 10.0 mi Calm Calm - N/A   Clear
4:15 AM 72.7 °F - 71.6 °F 96% 30.14 in 10.0 mi Calm Calm - N/A   Clear
4:35 AM 72.5 °F - 71.6 °F 97% 30.15 in 10.0 mi Calm Calm - N/A   Clear
4:55 AM 72.9 °F - 72.0 °F 97% 30.16 in 10.0 mi Calm Calm - N/A   Clear
5:15 AM 73.0 °F - 71.8 °F 96% 30.16 in 10.0 mi Calm Calm - N/A   Clear
5:35 AM 72.1 °F - 71.4 °F 98% 30.17 in 10.0 mi Calm Calm - N/A   Clear
5:55 AM 72.5 °F - 72.1 °F 99% 30.17 in 10.0 mi Calm Calm - N/A   Clear
6:15 AM 72.5 °F - 71.8 °F 98% 30.17 in 10.0 mi Calm Calm - N/A   Clear
6:35 AM 72.5 °F - 71.8 °F 98% 30.17 in 10.0 mi Calm Calm - N/A   Clear
6:55 AM 72.5 °F - 71.6 °F 97% 30.18 in 10.0 mi Calm Calm - N/A   Clear
7:15 AM 72.0 °F - 71.6 °F 99% 30.17 in 10.0 mi Calm Calm - N/A   Clear
7:35 AM 72.5 °F - 72.0 °F 98% 30.18 in 10.0 mi Calm Calm - N/A   Clear
7:55 AM 73.6 °F - 72.1 °F 95% 30.18 in 10.0 mi Calm Calm - N/A   Clear
8:15 AM 74.1 °F - 72.9 °F 96% 30.18 in 10.0 mi Calm Calm - N/A   Clear
8:35 AM 74.7 °F - 72.5 °F 93% 30.19 in 10.0 mi Calm Calm - N/A   Clear
8:55 AM 75.2 °F - 72.9 °F 92% 30.19 in 10.0 mi SW 4.6 mph - N/A   Clear
9:15 AM 76.1 °F - 72.5 °F 89% 30.19 in 10.0 mi SSW 3.5 mph - N/A   Clear
9:35 AM 77.5 °F - 72.7 °F 85% 30.19 in 10.0 mi SW 3.5 mph - N/A   Clear
9:55 AM 79.2 °F - 72.7 °F 80% 30.19 in 10.0 mi WSW 4.6 mph - N/A   Clear
10:15 AM 80.2 °F 84.6 °F 73.0 °F 79% 30.19 in 10.0 mi SSW 6.9 mph - N/A   Clear
10:35 AM 80.8 °F 85.4 °F 73.0 °F 77% 30.19 in 10.0 mi WSW 5.8 mph - N/A   Clear
10:55 AM 80.6 °F 85.2 °F 73.2 °F 78% 30.20 in 10.0 mi SW 5.8 mph - N/A   Clear
11:15 AM 80.6 °F 85.2 °F 73.2 °F 78% 30.20 in 10.0 mi SW 5.8 mph - N/A   Clear
11:35 AM 81.5 °F 86.7 °F 73.2 °F 76% 30.20 in 10.0 mi SW 4.6 mph - N/A   Clear
11:55 AM 82.8 °F 89.0 °F 73.6 °F 74% 30.20 in 10.0 mi SSW 5.8 mph - N/A   Clear
12:15 PM 83.5 °F 89.1 °F 72.5 °F 69% 30.20 in 10.0 mi SSW 4.6 mph - N/A   Clear
12:35 PM 83.7 °F 89.2 °F 72.0 °F 68% 30.20 in 10.0 mi South 5.8 mph - N/A   Clear
12:55 PM 84.2 °F 90.3 °F 72.7 °F 68% 30.19 in 10.0 mi Calm Calm - N/A   Clear
1:15 PM 84.7 °F 91.0 °F 72.7 °F 67% 30.19 in 10.0 mi SSW 3.5 mph - N/A   Clear
1:55 PM 84.2 °F 90.9 °F 73.4 °F 70% 30.19 in 10.0 mi SSW 5.8 mph - N/A   Scattered Clouds
2:15 PM 84.0 °F 90.2 °F 72.9 °F 69% 30.18 in 10.0 mi WSW 6.9 mph - N/A   Scattered Clouds
2:35 PM 84.7 °F 91.7 °F 73.8 °F 69% 30.18 in 10.0 mi SSW 5.8 mph - N/A   Clear
2:55 PM 84.6 °F 91.7 °F 73.8 °F 70% 30.17 in 10.0 mi WSW 4.6 mph - N/A Thunderstorm Scattered Clouds
3:15 PM 85.3 °F 93.0 °F 73.9 °F 69% 30.16 in 10.0 mi SW 5.8 mph - N/A   Mostly Cloudy
3:35 PM 85.1 °F 92.2 °F 73.4 °F 68% 30.16 in 10.0 mi SW 5.8 mph - N/A   Mostly Cloudy
3:55 PM 83.8 °F 90.1 °F 73.0 °F 70% 30.15 in 10.0 mi West 3.5 mph - N/A   Scattered Clouds
4:15 PM 83.3 °F 89.3 °F 73.2 °F 71% 30.15 in 10.0 mi SW 4.6 mph - N/A Thunderstorm Thunderstorm
4:55 PM 80.8 °F 86.1 °F 74.5 °F 81% 30.16 in 10.0 mi South 9.2 mph 16.1 mph N/A Rain , Thunderstorm Light Thunderstorms and Rain
5:15 PM 78.1 °F - 70.9 °F 78% 30.15 in 10.0 mi SSE 4.6 mph - N/A   Mostly Cloudy
5:35 PM 79.0 °F - 68.0 °F 69% 30.14 in 10.0 mi South 5.8 mph - N/A   Scattered Clouds
5:55 PM 79.7 °F - 67.1 °F 65% 30.14 in 10.0 mi Calm Calm - N/A   Clear
6:35 PM 79.2 °F - 68.9 °F 71% 30.13 in 10.0 mi Calm Calm - N/A   Clear
6:55 PM 78.8 °F - 70.0 °F 74% 30.13 in 10.0 mi Calm Calm - N/A Rain Light Rain
7:15 PM 77.4 °F - 70.5 °F 79% 30.13 in 10.0 mi Calm Calm - N/A Rain , Thunderstorm Light Thunderstorms and Rain
7:35 PM 75.6 °F - 72.9 °F 91% 30.14 in 10.0 mi Calm Calm - N/A Rain , Thunderstorm Light Thunderstorms and Rain
7:55 PM 75.4 °F - 72.7 °F 91% 30.13 in 10.0 mi Calm Calm - N/A Rain , Thunderstorm Light Thunderstorms and Rain
8:15 PM 75.2 °F - 73.0 °F 93% 30.14 in 10.0 mi Calm Calm - N/A Thunderstorm Thunderstorm
8:35 PM 74.5 °F - 73.4 °F 96% 30.14 in 10.0 mi Calm Calm - N/A   Clear
8:55 PM 74.1 °F - 72.9 °F 96% 30.14 in 10.0 mi Calm Calm - N/A   Scattered Clouds
9:15 PM 74.3 °F - 71.2 °F 90% 30.15 in 10.0 mi Calm Calm - N/A Thunderstorm Thunderstorm
9:35 PM 74.3 °F - 70.5 °F 88% 30.16 in 10.0 mi South 5.8 mph - N/A   Mostly Cloudy
9:55 PM 74.8 °F - 69.3 °F 83% 30.16 in 10.0 mi SSE 6.9 mph - N/A   Overcast
10:15 PM 72.7 °F - 69.3 °F 89% 30.17 in 7.0 mi South 10.4 mph - 0.01 in Rain Light Rain
10:35 PM 72.3 °F - 70.0 °F 92% 30.18 in 10.0 mi South 8.1 mph 16.1 mph 0.01 in Rain , Thunderstorm Rain
10:55 PM 72.0 °F - 70.2 °F 94% 30.18 in 10.0 mi SW 4.6 mph - 0.01 in Thunderstorm Drizzle
11:35 PM 71.6 °F - 70.9 °F 98% 30.17 in 10.0 mi Calm Calm - 0.02 in Rain Rain
11:55 PM 71.6 °F - 70.7 °F 97% 30.16 in 10.0 mi Calm Calm - 0.03 in Rain Light Rain